Change the Weather History Date:

Saturday, September 22, 2012

  Actual Average Record
Temperature  
Mean Temperature 56 °F -  
Max Temperature 60 °F 57 °F 66 °F (1975)
Min Temperature 51 °F 46 °F 38 °F (1956)
Degree Days  
Heating Degree Days 10    
Growing Degree Days 6 (Base 50)    
Moisture  
Dew Point 51 °F    
Average Humidity 88    
Maximum Humidity 100    
Minimum Humidity 64    
Precipitation  
Precipitation 0.41 in - - ()
Sea Level Pressure  
Sea Level Pressure 29.96 in    
Wind  
Wind Speed 6 mph (ESE)    
Max Wind Speed 17 mph    
Max Gust Speed 24 mph    
Visibility 10 miles    
Events Rain    
Averages and records for this station are not official NWS values.
T = Trace of Precipitation, MM = Missing Value Source: NWS Daily Summary

Daily Weather History Graph

Daily Weather History Graph

Search for Another Location

Airport or City:

Trip Planner

Search our weather history database for the weather conditions in past years. The results will help you decide how hot, cold, wet, or windy it might be!

Date:

Astronomy

Sep. 22, 2012 Rise Set
Actual Time 6:47 AM AKDT 6:58 PM AKDT
Civil Twilight 6:09 AM AKDT 7:36 PM AKDT
Nautical Twilight 5:23 AM AKDT 8:22 PM AKDT
Astronomical Twilight 4:35 AM AKDT 9:10 PM AKDT
Moon 3:24 PM AKDT (9/22) 11:01 PM AKDT (9/22)
Length of Visible Light 13h 27m
Length of Day
12h 10m
Waxing Crescent, 50% of the Moon is Illuminated
Sep 22
Waxing Crescent
Sep 29
Full
Oct 7
Last Quarter
Oct 15
New
Oct 21
First Quarter

Hourly Weather History & Observations

Time (AKDT) Temp. Dew Point Humidity Pressure Visibility Wind Dir Wind Speed Gust Speed Precip Events Conditions
12:53 AM 53.1 °F 53.1 °F 100% 30.02 in 10.0 mi NW 4.6 mph - N/A   Overcast
1:34 AM 53.6 °F 51.8 °F 94% 30.02 in 10.0 mi North 4.6 mph - N/A   Overcast
1:53 AM 53.1 °F 52.0 °F 96% 30.02 in 10.0 mi North 4.6 mph - N/A   Overcast
2:53 AM 53.1 °F 52.0 °F 96% 30.01 in 10.0 mi East 4.6 mph - N/A   Overcast
3:53 AM 53.1 °F 53.1 °F 100% 30.00 in 10.0 mi SSE 3.5 mph - N/A   Overcast
4:53 AM 53.1 °F 53.1 °F 100% 29.99 in 10.0 mi SW 3.5 mph - N/A   Overcast
5:28 AM 53.6 °F 53.6 °F 100% 29.99 in 10.0 mi Calm Calm - N/A   Overcast
5:53 AM 53.1 °F 53.1 °F 100% 29.98 in 10.0 mi ENE 4.6 mph - N/A   Overcast
6:53 AM 52.0 °F 52.0 °F 100% 29.98 in 10.0 mi SE 4.6 mph - N/A   Mostly Cloudy
7:05 AM 51.8 °F 51.8 °F 100% 29.98 in 10.0 mi ESE 3.5 mph - N/A   Mostly Cloudy
7:53 AM 53.1 °F 52.0 °F 96% 29.98 in 10.0 mi East 4.6 mph - N/A   Mostly Cloudy
8:53 AM 54.0 °F 52.0 °F 93% 29.98 in 10.0 mi Calm Calm - N/A   Overcast
9:53 AM 55.0 °F 53.1 °F 93% 29.97 in 10.0 mi Calm Calm - N/A   Overcast
10:53 AM 55.9 °F 53.1 °F 90% 29.97 in 10.0 mi Calm Calm - N/A   Overcast
11:53 AM 55.9 °F 53.1 °F 90% 29.96 in 10.0 mi WNW 8.1 mph - N/A   Mostly Cloudy
12:53 PM 57.9 °F 53.1 °F 84% 29.95 in 10.0 mi West 11.5 mph - N/A   Mostly Cloudy
1:53 PM 57.0 °F 53.1 °F 87% 29.96 in 10.0 mi SW 13.8 mph - N/A   Overcast
2:53 PM 57.9 °F 52.0 °F 81% 29.94 in 10.0 mi Calm Calm - N/A   Overcast
3:53 PM 60.1 °F 48.9 °F 67% 29.91 in 10.0 mi ESE 5.8 mph - N/A   Overcast
4:53 PM 60.1 °F 48.9 °F 67% 29.90 in 10.0 mi SE 12.7 mph - N/A   Overcast
5:53 PM 59.0 °F 48.0 °F 67% 29.90 in 10.0 mi ESE 15.0 mph - N/A   Overcast
6:53 PM 59.0 °F 46.9 °F 64% 29.90 in 10.0 mi ESE 11.5 mph - 0.00 in Rain Light Rain
7:53 PM 57.0 °F 48.9 °F 74% 29.90 in 8.0 mi SE 8.1 mph - 0.02 in Rain Light Rain
8:53 PM 54.0 °F 51.1 °F 90% 29.91 in 5.0 mi ENE 4.6 mph - 0.18 in Rain Rain
9:53 PM 55.0 °F 51.1 °F 86% 29.90 in 5.0 mi ESE 15.0 mph - 0.18 in Rain Rain
10:53 PM 57.0 °F 48.9 °F 74% 29.91 in 10.0 mi ESE 12.7 mph - 0.03 in   Overcast
11:53 PM 57.0 °F 48.9 °F 74% 29.91 in 10.0 mi ESE 17.3 mph 24.2 mph N/A   Overcast